Location: Eferding
(48.3167°N, 14.0167°E)
Time: 16:15:03
(UTC+00:00)

Daily predictions for brighter satellites

Satellite Brightness Start Highest point End
(mag) Time Altitude Azimuth Time Altitude Azimuth Time Altitude Azimuth
Cosmos 2173 Rocket 4.3 15:50:30 10° NNW 15:56:37 76° W 16:02:41 10° S
Helios 1A Rocket 4.1 15:55:42 10° S 15:59:45 51° W 16:03:50 10° NNW
COSMOS 2487 4.3 15:56:34 10° NW 15:59:47 36° WSW 16:02:59 10° S
Okean-O 3.3 15:56:19 10° SE 16:00:16 32° ENE 16:04:14 10° N
ATLAS 3B R/B 4.0 15:55:12 10° W 16:00:59 30° NNW 16:06:45 10° NE
Cosmos 2227 Rocket 3.1 15:57:33 10° NNW 16:02:23 28° NE 16:07:12 10° ESE
Cosmos 2297 Rocket 3.0 15:58:12 10° NNW 16:03:07 29° NE 16:08:02 10° ESE
YAOGAN 1 4.2 16:01:04 10° E 16:03:27 15° ENE 16:05:53 10° NNE
Cosmos 2151 3.8 15:59:26 10° NNW 16:03:40 58° W 16:07:51 10° S
TELKOM 3 2.8 16:06:21 10° WNW 16:08:34 57° N 16:10:39 10° E
Cosmos 1455 2.2 16:05:53 10° S 16:09:40 86° W 16:13:27 10° N
PSLV R/B 4.0 16:05:35 10° NNE 16:09:49 75° ESE 16:14:02 10° S
Cosmos 1818 4.3 16:06:52 10° NW 16:12:15 60° WSW 16:17:34 10° SSE
Cosmos 2233 Rocket 4.1 16:06:04 10° N 16:12:17 55° ENE 16:18:27 10° SSE
Cosmos 1842 Rocket 3.8 16:08:16 10° S 16:12:38 53° E 16:17:00 10° NNE
Cosmos 2221 3.0 16:09:20 10° SSE 16:13:18 38° E 16:17:21 10° NNE
CORIOLIS 4.2 16:09:33 10° SSE 16:14:52 63° ENE 16:20:15 10° N
Cosmos 1633 4.4 16:13:45 10° NE 16:15:24 13° ENE 16:17:03 10° E
AQUARIUS 4.1 16:12:11 10° SSE 16:16:39 67° ENE 16:21:08 10° N
ALOS 4.2 16:15:50 10° SSW 16:20:06 35° W 16:24:25 10° NNW
H-2A R/B 2.7 16:18:21 10° SSE 16:22:12 68° ENE 16:26:02 10° N
Feng Yun 1-1 Rocket 4.3 16:16:48 10° SSE 16:22:28 89° ENE 16:28:01 10° NNW
Meteor 2-3 Rocket 3.8 16:22:08 10° N 16:27:59 77° ENE 16:33:46 10° SSE
Cosmos 1238 Rocket 3.1 16:23:51 10° N 16:28:45 61° ENE 16:32:42 10° SSE
SMAP 3.1 16:24:57 10° SSE 16:29:36 86° W 16:34:18 10° NNW
Cosmos 1943 Rocket 4.0 16:24:56 10° WSW 16:29:38 26° NW 16:34:23 10° N
Cosmos 2263 Rocket 4.1 16:29:00 10° NNE 16:29:58 10° NNE 16:30:55 10° NE
YAOGAN 6 3.5 16:27:04 10° SE 16:30:01 26° ENE 16:32:58 10° N
Cosmos 1743 Rocket 3.5 16:27:28 10° N 16:31:51 86° E 16:36:12 10° S
Cosmos 1805 Rocket 4.0 16:28:28 10° N 16:32:31 37° ENE 16:36:34 10° SE
TSX-5 4.0 16:29:41 10° SSW 16:33:30 70° ESE 16:38:27 10° NE
Okean O Rocket 4.1 16:30:19 10° SSW 16:34:03 27° W 16:37:49 10° NW
Cosmos 2123 Rocket 4.1 16:28:47 10° SSW 16:35:00 81° W 16:41:14 10° N
COBE Rocket 3.9 16:31:32 10° NNE 16:36:21 55° E 16:40:58 10° S
Meteor 2-10 Rocket 3.6 16:31:30 10° SSW 16:36:30 77° WNW 16:41:34 10° N
Genesis I 4.0 16:33:11 10° S 16:36:51 35° ESE 16:39:24 17° ENE
USA 215 3.5 16:34:13 12° E 16:40:09 54° NNE 16:46:30 10° NW
Envisat 3.0 16:38:22 10° SSE 16:43:23 64° ENE 16:48:27 10° N
Cosmos 1697 Rocket 4.1 16:41:30 10° SE 16:44:50 16° E 16:45:07 16° E
USA 229 DEB 4.2 16:39:10 10° S 16:45:06 37° ESE 16:49:59 16° ENE
USA 229 4.2 16:39:20 10° S 16:45:13 37° ESE 16:50:02 16° ENE
NOSS 3-1 (A) 4.5 16:46:37 10° SSE 16:50:44 22° ESE 16:52:23 19° E
NOSS 3-1 (C) 4.0 16:47:31 10° S 16:52:27 34° ESE 16:55:55 19° ENE
ATLAS 5 CENTAUR R/B 2.3 16:47:56 10° NW 16:53:31 63° NE 16:59:57 10° SE
Cosmos 1500 Rocket 4.2 16:53:14 10° NNW 16:57:34 57° W 17:01:50 10° S
CZ-4 R/B 1.5 16:55:15 10° SSE 16:59:21 55° ENE 17:03:23 10° N
Meteor 2-20 4.4 16:53:37 10° S 16:59:40 67° E 17:05:46 10° NNE
Cosmos 1633 Rocket 3.6 17:00:12 10° N 17:04:15 35° ENE 17:08:04 11° SE
COSMO-SKYMED 1 2.5 17:03:15 10° NNE 17:07:34 60° ESE 17:11:51 10° S
SeaSat 1 3.5 17:05:34 10° S 17:10:19 48° WSW 17:15:07 10° NW
Geosat 4.3 17:05:52 10° NNE 17:10:53 69° WNW 17:15:53 10° SW
Cosmos 1869 3.1 17:07:18 10° S 17:11:15 74° E 17:15:12 10° NNE
Cosmos 1666 Rocket 3.6 17:08:43 10° N 17:13:02 51° ENE 17:17:16 10° SSE
Cosmos 1607 3.9 17:07:08 10° NW 17:13:22 87° NE 17:19:39 10° SE
NOAA 11 4.4 17:09:33 10° SE 17:14:42 47° ENE 17:19:53 10° N
Cosmos 1867 3.7 17:13:14 10° SW 17:18:42 73° NW 17:22:42 19° NNE
CZ-2D R/B 3.8 17:19:33 39° NE 17:19:33 39° NE 17:22:44 10° N
Cosmos 1939 Rocket 3.3 17:19:06 40° ENE 17:19:06 40° ENE 17:22:58 10° N
H-2A R/B 3.9 17:21:43 15° NNE 17:21:43 15° NNE 17:23:17 10° NNE
GEOS 3 Rocket 4.4 17:17:33 14° NNE 17:21:49 50° NW 17:26:51 10° WSW
Sich 1 2.9 17:17:43 10° N 17:22:05 84° E 17:26:26 10° S
CSL-04 Debris 4.1 17:16:37 10° SSE 17:22:06 77° ENE 17:27:37 10° NNW
Cosmos 2219 3.7 17:17:24 10° NNW 17:22:56 60° WSW 17:28:26 10° S
Cosmos 2034 Rocket 4.0 17:19:26 10° N 17:25:42 58° ENE 17:31:58 10° SSE
Cosmos 1513 Rocket 4.4 17:19:46 10° N 17:26:15 77° E 17:32:37 10° SSE
Ariane Rocket 3.3 17:25:09 36° E 17:26:21 42° ENE 17:31:08 10° N
Cosmos 1656 3.7 17:22:32 10° S 17:27:58 56° ESE 17:30:21 32° NE
Cosmos 2084 4.4 17:28:08 10° NW 17:32:17 47° SW 17:35:48 13° SSE
CZ-3B R/B 4.0 17:32:19 10° WNW 17:34:42 32° N 17:34:42 32° N
Cosmos 923 Rocket 4.1 17:34:00 10° S 17:39:00 48° ESE 17:39:04 48° ESE
YAOGAN 1 2.7 17:34:41 10° S 17:39:00 75° WSW 17:43:22 10° NNW
CENTAUR R/B 4.3 17:33:24 10° NW 17:39:09 25° N 17:42:28 19° NE
Cosmos 773 Rocket 4.4 17:35:34 10° SW 17:40:40 62° WNW 17:45:15 13° NNE
Cosmos 2344 4.2 17:33:31 10° WSW 17:40:51 52° NW 17:47:45 16° NE
Cosmos 2056 Rocket 4.3 17:39:06 10° N 17:42:39 32° NNE 17:42:39 32° NNE
CSL-04 Rocket 3.8 17:38:35 10° S 17:43:58 73° WSW 17:49:18 10° NNW
Tsikada Rocket 4.1 17:39:59 10° SSE 17:46:03 49° E 17:52:10 10° NNE
Cosmos 2227 Rocket 2.6 17:41:17 10° NNW 17:46:54 63° WSW 17:52:27 10° SSE
Cosmos 1980 Rocket 4.2 17:42:25 10° SSE 17:43:05 13° SSE 17:43:05 13° SSE
Cosmos 2297 Rocket 2.7 17:41:59 10° NW 17:47:32 58° WSW 17:53:03 10° S
Cosmos 1633 3.2 17:47:03 10° NNW 17:50:38 56° W 17:52:46 22° SSW
Cosmos 1538 Rocket 4.3 17:45:53 10° SSW 17:51:05 66° WNW 17:54:53 19° NNE
Meteor 2-11 Rocket 4.3 17:46:10 10° N 17:52:20 84° E 17:58:28 10° S
ATLAS 3B R/B 4.2 17:48:57 10° NW 17:53:52 21° N 17:55:52 18° NNE
IRS-1A Rocket 4.1 17:54:55 51° SE 17:56:14 68° ENE 18:01:55 10° N
Cosmos 1862 3.7 17:52:49 10° NNW 17:56:46 63° W 17:57:45 45° SSW
Cosmos 1816 Rocket 4.4 17:52:04 10° S 17:58:17 63° E 18:04:36 10° NNE
USA 116 4.4 17:56:24 25° N 17:58:54 66° WNW 18:03:42 10° SSW
Cosmos 2369 3.6 17:55:02 10° SSW 18:00:29 64° ESE 18:00:29 64° ESE
DMSP B5D1-3 4.4 18:05:47 47° NNE 18:07:20 88° WNW 18:12:30 10° SSW
Cosmos 2082 4.0 18:06:51 10° NNW 18:12:25 63° WSW 18:14:50 34° S
Lacrosse 4 Rocket 3.5 18:08:55 10° SSW 18:10:04 18° SSW 18:10:04 18° SSW
Cosmos 2263 Rocket 3.5 18:10:37 10° NNW 18:13:29 26° N 18:13:29 26° N
Gblst 52 Del rocket 4.4 18:10:28 10° W 18:17:12 68° N 18:17:47 64° NNE
BREEZE-M DEB (TANK) 4.3 18:15:30 10° SW 18:17:34 22° SW 18:17:34 22° SW
USA 215 3.3 18:21:35 56° SSE 18:23:02 74° SW 18:29:37 10° WNW
Cosmos 1697 Rocket 2.9 18:22:20 10° SSW 18:26:55 61° SSW 18:26:55 61° SSW
BREEZE-M DEB (TANK) 4.0 18:24:57 10° W 18:28:16 32° WNW 18:28:16 32° WNW
CZ-4 R/B 4.4 18:32:03 10° SW 18:34:41 16° W 18:37:18 10° NW
USA 229 DEB 4.0 18:29:14 10° WSW 18:35:46 59° NW 18:37:27 47° N
USA 229 4.0 18:29:22 10° WSW 18:35:53 60° NW 18:37:30 48° N
Cosmos 724 4.5 18:30:59 10° NW 18:36:09 67° WNW 18:36:09 67° WNW
ATLAS 5 CENTAUR R/B 3.9 18:32:53 10° WNW 18:38:05 33° WSW 18:42:11 17° S
NOSS 3-1 (A) 3.6 18:35:05 10° SW 18:39:52 65° WSW 18:39:52 65° WSW
NOSS 3-1 (C) 3.9 18:37:21 10° WSW 18:42:57 55° NW 18:43:21 54° NNW
H-2A R/B 4.2 19:02:21 20° NNW 19:02:21 20° NNW 19:03:53 10° NNW
CENTAUR R/B 4.2 19:25:01 10° NW 19:29:38 32° N 19:29:38 32° N
